Weather History for Billings, MT

Change the Weather History Date:

Sunday, May 11, 2014

  Actual Average Record
Temperature  
Mean Temperature 42 °F 54 °F  
Max Temperature 50 °F 66 °F 89 °F (1960)
Min Temperature 33 °F 42 °F 20 °F (1953)
Degree Days  
Heating Degree Days 23 11  
Month to date heating degree days 190 141  
Since 1 July heating degree days 6972 6518  
Cooling Degree Days 0 0  
Month to date cooling degree days 0 0  
Year to date cooling degree days 0 1  
Moisture  
Dew Point 29 °F    
Average Humidity 64    
Maximum Humidity 89    
Minimum Humidity 39    
Precipitation  
Precipitation T in 0.07 in 2.11 in (1981)
Month to date precipitation 0.76 0.72  
Year to date precipitation 6.34 4.40  
Snow  
Snow 0.00 in 0.00 in 15.00 in (1981)
Month to date snowfall 2.1 1.2  
Since 1 July snowfall 103.5 54.2  
Snow Depth 0.00 in    
Sea Level Pressure  
Sea Level Pressure 30.25 in    
Wind  
Wind Speed 10 mph (NNE)    
Max Wind Speed 18 mph    
Max Gust Speed 24 mph    
Visibility 10 miles    
Events Rain    
T = Trace of Precipitation, MM = Missing Value Source: NWS Daily Summary

Daily Weather History Graph

Daily Weather History Graph

Search for Another Location

Airport:

Trip Planner

Search our weather history database for the weather conditions in past years. The results will help you decide how hot, cold, wet, or windy it might be!

Date:

Astronomy

May. 11, 2014 Rise Set
Actual Time 5:47 AM MDT 8:34 PM MDT
Civil Twilight 5:13 AM MDT 9:08 PM MDT
Nautical Twilight 4:29 AM MDT 9:52 PM MDT
Astronomical Twilight 3:38 AM MDT 10:44 PM MDT
Moon 5:24 PM MDT (5/11) 4:05 AM MDT (5/11)
Length of Visible Light 15h 55m
Length of Day
14h 46m
Waxing Gibbous, 89% of the Moon is Illuminated
May 11
Waxing Gibbous
May 14
Full
May 21
Last Quarter
May 28
New
Jun 5
First Quarter

Hourly Weather History & Observations

Time (MDT) Temp. Windchill Dew Point Humidity Pressure Visibility Wind Dir Wind Speed Gust Speed Precip Events Conditions
12:53 AM 39.0 °F 34.0 °F 32.0 °F 76% 30.12 in 10.0 mi North 6.9 mph - N/A   Overcast
1:53 AM 39.0 °F 32.8 °F 32.0 °F 76% 30.16 in 10.0 mi NNE 9.2 mph - N/A   Overcast
2:53 AM 37.9 °F 31.5 °F 32.0 °F 79% 30.16 in 10.0 mi NNE 9.2 mph - N/A   Overcast
3:53 AM 36.0 °F 31.1 °F 32.0 °F 86% 30.17 in 10.0 mi NNE 5.8 mph - N/A   Mostly Cloudy
4:53 AM 35.1 °F 30.1 °F 30.9 °F 85% 30.19 in 10.0 mi NNW 5.8 mph - N/A   Scattered Clouds
5:53 AM 33.1 °F 27.7 °F 30.0 °F 89% 30.22 in 10.0 mi NW 5.8 mph - N/A   Scattered Clouds
6:53 AM 35.1 °F 31.0 °F 32.0 °F 89% 30.25 in 10.0 mi SSW 4.6 mph - N/A   Mostly Cloudy
7:53 AM 37.9 °F 35.5 °F 33.1 °F 83% 30.27 in 10.0 mi South 3.5 mph - N/A   Mostly Cloudy
8:53 AM 44.1 °F 40.1 °F 33.1 °F 65% 30.27 in 10.0 mi NNE 6.9 mph - N/A   Scattered Clouds
9:53 AM 44.1 °F 40.1 °F 32.0 °F 63% 30.26 in 10.0 mi NNE 6.9 mph - N/A   Mostly Cloudy
10:53 AM 41.0 °F 36.4 °F 30.9 °F 67% 30.27 in 10.0 mi ENE 6.9 mph - 0.00 in Rain Light Rain
11:53 AM 46.0 °F 41.0 °F 30.0 °F 54% 30.25 in 10.0 mi NE 10.4 mph - 0.00 in   Mostly Cloudy
12:53 PM 46.9 °F - 27.0 °F 46% 30.25 in 10.0 mi NNE 8.1 mph - N/A   Mostly Cloudy
1:53 PM 46.9 °F - 26.1 °F 44% 30.25 in 10.0 mi ENE 11.5 mph - N/A   Mostly Cloudy
2:53 PM 48.0 °F - 26.1 °F 42% 30.25 in 10.0 mi NE 15.0 mph 19.6 mph N/A   Mostly Cloudy
3:53 PM 48.0 °F - 26.1 °F 42% 30.26 in 10.0 mi NE 12.7 mph - N/A   Mostly Cloudy
4:53 PM 50.0 °F - 26.1 °F 39% 30.25 in 10.0 mi East 12.7 mph 17.3 mph N/A   Mostly Cloudy
5:53 PM 48.0 °F - 25.0 °F 41% 30.26 in 10.0 mi NE 11.5 mph - N/A   Mostly Cloudy
6:53 PM 46.9 °F - 26.1 °F 44% 30.27 in 10.0 mi NNE 15.0 mph - N/A   Mostly Cloudy
7:53 PM 46.0 °F 38.5 °F 27.0 °F 47% 30.30 in 10.0 mi NNE 19.6 mph 24.2 mph N/A   Mostly Cloudy
8:53 PM 43.0 °F 36.4 °F 27.0 °F 53% 30.32 in 10.0 mi NE 12.7 mph - N/A   Mostly Cloudy
9:53 PM 41.0 °F 36.4 °F 27.0 °F 57% 30.34 in 10.0 mi North 6.9 mph - N/A   Mostly Cloudy
10:53 PM 39.9 °F 33.4 °F 28.0 °F 63% 30.36 in 10.0 mi North 10.4 mph - N/A   Mostly Cloudy
11:53 PM 41.0 °F 33.9 °F 28.0 °F 60% 30.35 in 10.0 mi North 12.7 mph - N/A   Overcast